This is the latest recevied weather packets stored in our database for station/object IZ2MHJ-3. If no packets are shown the sender has not sent any weather packets the latest 10 day(s).
| Time | Temp. | Humidity | Pressure | Rain* | Wind** | Luminosity | Snow |
|---|---|---|---|---|---|---|---|
| 1778124294 | 11.67° C | 88% | 1013.5 hPa | - | - | - | - |
| 1778123094 | 11.67° C | 88% | 1013.7 hPa | - | - | - | - |
| 1778121893 | 11.67° C | 87% | 1013.6 hPa | - | - | - | - |
| 1778120693 | 12.22° C | 87% | 1013.6 hPa | - | - | - | - |
| 1778119493 | 12.22° C | 87% | 1013.6 hPa | - | - | - | - |
| 1778118293 | 12.22° C | 87% | 1013.4 hPa | - | - | - | - |
| 1778117092 | 12.22° C | 87% | 1013.2 hPa | - | - | - | - |
| 1778115892 | 12.22° C | 86% | 1013.3 hPa | - | - | - | - |
| 1778114691 | 12.22° C | 85% | 1013.2 hPa | - | - | - | - |
| 1778113491 | 12.22° C | 84% | 1013.3 hPa | - | - | - | - |
| 1778112291 | 12.22° C | 83% | 1013.3 hPa | - | - | - | - |
| 1778111091 | 12.22° C | 84% | 1013 hPa | - | - | - | - |
| 1778109890 | 12.22° C | 84% | 1012.8 hPa | - | - | - | - |
| 1778108690 | 12.22° C | 84% | 1012.9 hPa | - | - | - | - |
| 1778107490 | 12.78° C | 84% | 1012.9 hPa | - | - | - | - |
| 1778106289 | 12.78° C | 83% | 1013 hPa | - | - | - | - |
| 1778105089 | 12.22° C | 84% | 1012.8 hPa | - | - | - | - |
| 1778103889 | 12.78° C | 83% | 1012.7 hPa | - | - | - | - |
| 1778102688 | 12.78° C | 83% | 1012.8 hPa | - | - | - | - |
| 1778101488 | 12.22° C | 84% | 1012.9 hPa | - | - | - | - |
| 1778100288 | 12.78° C | 82% | 1012.7 hPa | - | - | - | - |
| 1778099088 | 12.78° C | 81% | 1012.8 hPa | - | - | - | - |
| 1778097887 | 12.78° C | 81% | 1012.5 hPa | - | - | - | - |
| 1778096687 | 13.33° C | 84% | 1012.4 hPa | - | - | - | - |
| 1778095487 | 13.33° C | 80% | 1012 hPa | - | - | - | - |
* Rain since midnight (hover to see other rain measurements)
** Current wind speed in m/s (hover to see current wind gust speed)